Location: Laura�t
(43.9341°N, 0.2497°E)
Time: 23:43:20
(UTC+00:00)

Meteor 1-20 Rocket - Pass Details

Date: 03 March 2021
Orbit: 820 x 891 km, 81.2° (Epoch: 17 April)

Event Time Altitude Azimuth Distance (km) Brightness Sun altitude
Rises 18:06:13 0° 178° (S) 3,338 7.4 -3.7°
Reaches altitude 10° 18:08:37 10° 175° (S) 2,408 6.6 -4.1°
Maximum altitude 18:13:58 61° 96° (E) 931 4.2 -5.1°
Drops below altitude 10° 18:19:23 10° 17° (NNE) 2,439 6.4 -6.1°
Sets 18:21:49 0° 14° (NNE) 3,384 7.2 -6.5°
